GFSNE_700_temp_231.txt.gz
Temp
2 2 3 2 2 2 2 2 2 2 3 2 2 1 0 1 1 1 1 1 1 2 2 2 2 2 2 1 1 0 -0 -0 -1 -1 -1 -2 -2 -2
2 3 3 2 2 2 2 2 1 2 3 2 2 0 0 -0 -0 0 1 1 1 1 2 2 1 2 1 1 -0 -0 -1 -1 -1 -2 -2 -2 -3 -2
3 2 2 2 2 2 1 1 1 2 2 1 1 0 -0 -0 -0 -0 0 1 1 1 1 1 1 1 0 -0 -1 -1 -1 -1 -2 -2 -3 -3 -3 -3
2 2 1 2 1 1 1 1 1 1 2 1 -0 -1 -1 -1 -1 -0 -0 -0 0 1 1 1 0 -1 -1 -1 -2 -2 -2 -2 -3 -3 -4 -4 -4 -3
1 1 2 1 1 0 0 0 1 1 1 0 -0 -1 -1 -1 -1 -1 -1 -0 0 0 0 -1 -1 -2 -2 -2 -2 -2 -2 -3 -3 -4 -5 -5 -4 -4
2 1 1 0 0 0 0 -0 -0 -0 -0 -1 -1 -1 -1 -1 -1 -1 -1 -1 -1 -0 -1 -2 -3 -3 -3 -3 -3 -3 -3 -3 -3 -4 -5 -6 -5 -5
1 1 0 -0 -0 -0 -1 -1 -1 -1 -1 -1 -2 -2 -2 -1 -1 -1 -1 -2 -1 -1 -2 -3 -3 -3 -3 -3 -3 -3 -3 -4 -4 -5 -6 -6 -6 -5
0 -0 -1 -1 -1 -1 -1 -1 -1 -1 -1 -2 -2 -2 -2 -2 -2 -2 -1 -1 -1 -2 -2 -3 -3 -3 -3 -3 -3 -3 -4 -4 -5 -6 -6 -6 -6 -4
-1 -0 -1 -1 -2 -2 -3 -2 -2 -2 -2 -2 -2 -2 -2 -2 -2 -2 -2 -2 -2 -3 -3 -4 -4 -3 -3 -4 -4 -4 -4 -5 -6 -6 -6 -6 -6 -5
-1 -1 -1 -2 -3 -3 -3 -3 -3 -3 -3 -3 -3 -3 -2 -2 -2 -2 -2 -2 -3 -3 -4 -4 -5 -5 -4 -4 -4 -5 -6 -6 -6 -7 -6 -6 -6 -5
-1 -2 -3 -3 -4 -4 -4 -4 -4 -4 -4 -4 -3 -3 -3 -3 -3 -3 -3 -3 -4 -4 -5 -5 -5 -5 -5 -5 -5 -6 -6 -6 -6 -6 -6 -6 -5 -5
-2 -3 -4 -4 -4 -4 -5 -4 -4 -4 -4 -4 -4 -4 -3 -3 -3 -4 -4 -4 -4 -4 -5 -5 -6 -6 -6 -5 -5 -6 -6 -6 -6 -6 -6 -6 -5 -5
-3 -4 -5 -5 -5 -5 -5 -5 -5 -5 -5 -5 -5 -4 -4 -4 -4 -4 -4 -4 -5 -5 -5 -6 -6 -6 -7 -6 -6 -6 -5 -6 -7 -7 -6 -6 -7 -6
-4 -5 -5 -5 -5 -5 -5 -5 -5 -5 -5 -5 -6 -5 -5 -5 -5 -5 -5 -5 -6 -6 -6 -6 -6 -7 -7 -7 -7 -7 -7 -6 -6 -7 -7 -6 -6 -6
-5 -6 -5 -6 -6 -6 -5 -5 -5 -5 -6 -6 -6 -5 -5 -6 -6 -6 -6 -6 -7 -7 -6 -7 -7 -7 -7 -8 -7 -8 -7 -7 -9 -8 -7 -7 -7 -7
-6 -6 -7 -7 -7 -6 -6 -6 -6 -6 -6 -6 -7 -6 -6 -7 -7 -7 -6 -7 -7 -7 -7 -7 -7 -8 -8 -8 -8 -8 -8 -8 -9 -9 -8 -8 -8 -8
-6 -7 -7 -7 -7 -7 -6 -6 -6 -6 -7 -7 -7 -7 -7 -7 -7 -7 -7 -7 -8 -8 -8 -8 -8 -8 -9 -9 -10 -9 -10 -9 -10 -10 -9 -9 -9 -9
-7 -8 -7 -7 -7 -7 -7 -7 -7 -7 -7 -8 -8 -8 -8 -8 -8 -8 -8 -8 -8 -9 -9 -9 -9 -9 -10 -10 -10 -10 -10 -10 -10 -10 -9 -9 -9 -9
-8 -7 -7 -7 -7 -8 -7 -8 -8 -8 -8 -8 -8 -8 -8 -8 -8 -8 -8 -8 -9 -9 -9 -10 -10 -10 -11 -11 -11 -10 -11 -11 -10 -10 -10 -10 -10 -10
-8 -7 -8 -8 -8 -8 -8 -8 -8 -8 -8 -9 -9 -9 -9 -9 -9 -9 -9 -9 -9 -10 -10 -11 -11 -11 -12 -12 -12 -12 -12 -12 -12 -11 -11 -11 -12 -12
-8 -8 -8 -8 -8 -8 -9 -9 -9 -9 -9 -9 -9 -9 -9 -9 -10 -10 -10 -10 -11 -11 -11 -11 -12 -13 -13 -13 -13 -13 -13 -13 -14 -13 -13 -13 -12 -12
-8 -8 -9 -9 -9 -9 -9 -9 -9 -9 -9 -9 -10 -10 -10 -10 -11 -11 -11 -11 -12 -12 -12 -12 -13 -14 -14 -14 -15 -14 -14 -14 -14 -14 -14 -14 -14 -13
-9 -9 -9 -9 -9 -9 -9 -9 -9 -10 -10 -10 -10 -10 -11 -11 -12 -12 -12 -13 -13 -13 -13 -13 -13 -14 -15 -15 -15 -15 -15 -15 -14 -14 -14 -14 -14 -14

GFSNE_700_temp_234.txt.gz
Temp
5 4 4 3 3 2 3 2 2 2 2 3 3 3 3 3 3 2 1 1 1 1 2 2 2 2 2 2 2 2 1 1 1 0 -0 -1 -1 -1
4 3 3 2 2 3 2 2 2 2 2 2 2 3 3 2 1 1 1 1 1 1 1 1 1 1 1 1 1 1 1 0 -0 -0 -1 -1 -1 -2
4 3 3 2 2 2 2 2 2 1 2 2 2 2 3 2 1 0 0 0 1 1 1 1 1 1 1 1 0 0 -0 -1 -1 -1 -1 -1 -2 -2
4 3 3 2 1 2 2 1 1 1 1 1 1 2 2 1 0 0 0 0 0 0 1 1 1 1 1 0 -0 -1 -1 -1 -2 -2 -2 -2 -3 -3
3 3 3 3 2 1 1 0 0 1 1 1 1 1 1 -0 -0 -1 -0 -0 -0 -0 0 0 0 -0 -1 -1 -1 -1 -2 -1 -2 -2 -2 -3 -3 -3
2 2 1 1 1 0 0 -0 -0 0 0 0 0 0 -0 -1 -1 -1 -1 -1 -1 -0 0 -1 -1 -1 -1 -1 -1 -1 -2 -1 -1 -2 -2 -3 -3 -4
3 2 1 1 1 1 0 -0 -0 -0 -1 -0 -1 -1 -1 -1 -2 -1 -1 -1 -1 -1 -1 -1 -1 -2 -2 -2 -2 -2 -3 -3 -2 -3 -3 -4 -4 -4
2 1 1 1 0 0 -1 -0 -0 -1 -1 -2 -2 -2 -2 -2 -2 -2 -1 -1 -1 -1 -1 -1 -2 -2 -2 -2 -2 -3 -3 -3 -3 -3 -4 -4 -5 -5
1 1 0 0 -0 -0 -1 -1 -1 -2 -2 -3 -3 -3 -3 -2 -2 -2 -2 -2 -1 -1 -1 -2 -2 -3 -3 -3 -4 -4 -4 -5 -5 -5 -5 -6 -6 -6
1 1 0 0 -0 -1 -1 -1 -2 -2 -3 -4 -3 -3 -3 -3 -3 -2 -2 -2 -2 -2 -2 -2 -3 -3 -4 -4 -4 -4 -5 -6 -6 -6 -6 -6 -6 -6
1 0 -0 -0 -1 -1 -2 -3 -3 -3 -4 -4 -4 -4 -4 -3 -3 -3 -3 -2 -3 -3 -3 -3 -3 -4 -4 -4 -4 -5 -5 -5 -5 -5 -6 -6 -6 -5
0 0 -0 -1 -1 -2 -3 -4 -4 -4 -4 -4 -4 -4 -4 -3 -3 -3 -3 -3 -3 -3 -3 -4 -4 -4 -4 -5 -5 -5 -5 -5 -5 -5 -5 -6 -6 -5
-0 -1 -1 -2 -3 -4 -4 -4 -5 -5 -5 -5 -5 -4 -4 -4 -4 -4 -4 -3 -4 -4 -4 -4 -5 -5 -5 -6 -6 -6 -6 -5 -5 -6 -6 -6 -6 -5
-1 -1 -2 -3 -4 -5 -5 -5 -5 -5 -5 -5 -5 -5 -5 -5 -5 -5 -5 -5 -5 -5 -5 -5 -6 -6 -6 -7 -7 -6 -6 -6 -6 -5 -6 -6 -6 -6
-1 -2 -2 -4 -5 -5 -6 -6 -6 -6 -6 -6 -6 -6 -6 -6 -6 -6 -6 -6 -6 -6 -6 -6 -7 -7 -7 -7 -7 -7 -7 -7 -7 -7 -6 -7 -6 -6
-1 -3 -5 -5 -5 -6 -6 -6 -6 -6 -6 -6 -6 -6 -7 -7 -7 -7 -7 -7 -7 -7 -7 -7 -7 -7 -7 -8 -8 -8 -8 -7 -8 -9 -9 -8 -8 -7
-3 -6 -5 -5 -6 -7 -7 -7 -7 -7 -7 -7 -7 -7 -7 -8 -7 -7 -7 -7 -7 -7 -7 -7 -8 -8 -8 -9 -9 -9 -9 -8 -9 -10 -10 -9 -9 -9
-5 -6 -6 -6 -7 -7 -7 -7 -7 -7 -7 -7 -8 -8 -8 -8 -8 -8 -8 -8 -8 -8 -8 -8 -8 -9 -9 -10 -10 -10 -10 -10 -10 -10 -9 -9 -9 -9
-6 -6 -7 -7 -7 -7 -7 -7 -7 -7 -8 -8 -8 -8 -8 -8 -8 -8 -8 -9 -9 -9 -9 -9 -9 -9 -10 -10 -11 -11 -11 -11 -10 -10 -10 -10 -9 -9
-6 -7 -8 -7 -7 -7 -8 -8 -8 -8 -8 -8 -8 -8 -9 -9 -9 -9 -9 -9 -9 -10 -10 -10 -10 -11 -11 -11 -12 -12 -12 -12 -12 -11 -11 -11 -11 -11
-7 -8 -8 -8 -8 -8 -8 -8 -8 -8 -9 -9 -9 -9 -9 -9 -9 -10 -10 -10 -11 -11 -11 -11 -11 -12 -12 -13 -13 -13 -13 -13 -13 -13 -13 -13 -12 -12
-8 -8 -8 -8 -8 -8 -8 -9 -9 -9 -9 -9 -9 -9 -10 -10 -10 -11 -11 -12 -12 -12 -12 -12 -12 -13 -13 -14 -14 -14 -14 -14 -14 -14 -14 -14 -13 -13
-8 -8 -7 -8 -8 -8 -9 -9 -9 -9 -9 -9 -10 -10 -10 -11 -11 -12 -12 -12 -12 -13 -13 -13 -13 -14 -14 -15 -15 -15 -15 -15 -14 -14 -14 -13 -13 -13

GFSNE_700_temp_237.txt.gz
Temp
7 7 6 6 5 5 4 3 2 2 2 2 3 3 3 3 3 3 3 3 3 2 2 2 2 2 2 2 2 2 2 1 1 1 1 1 0 -0
7 7 6 6 5 5 3 2 2 2 2 2 2 2 2 2 2 2 3 2 1 1 1 2 2 2 2 1 1 1 1 1 1 0 0 0 0 -0
7 6 6 5 5 4 3 2 2 2 2 1 1 1 1 2 2 2 2 2 1 1 1 1 1 2 1 1 0 0 0 0 0 0 0 0 -1 -1
6 6 5 4 4 3 3 2 2 2 1 1 0 0 1 1 1 2 2 1 1 1 1 1 1 1 1 1 1 1 0 0 -0 -0 -0 -0 -1 -1
6 6 5 4 3 3 3 2 2 2 1 0 -0 -0 0 1 1 1 1 -0 0 0 0 0 1 1 0 1 1 0 -0 -0 -0 -1 -1 -1 -1 -2
6 6 5 3 3 3 3 2 1 1 0 -0 -0 -1 -0 0 0 -0 -1 -1 -1 -1 -0 0 0 0 -0 -0 -0 -1 -1 -1 -1 -1 -2 -2 -2 -2
5 5 4 4 3 2 2 1 1 0 -0 -0 -1 -0 -0 -0 -1 -1 -2 -1 -1 -1 -1 -0 -0 -1 -1 -1 -1 -1 -1 -1 -2 -2 -3 -2 -3 -3
5 6 5 3 3 2 2 1 0 -0 -0 -1 -1 -0 -0 -1 -2 -2 -2 -2 -1 -2 -1 -1 -1 -0 -1 -1 -1 -1 -2 -2 -2 -3 -3 -3 -4 -4
5 5 5 3 2 2 1 0 -0 -1 -1 -1 -1 -1 -1 -3 -3 -3 -3 -3 -2 -1 -1 -1 -1 -1 -1 -1 -2 -2 -3 -3 -3 -4 -4 -4 -4 -5
5 5 4 2 1 1 0 0 -0 -1 -1 -2 -2 -2 -3 -3 -4 -3 -3 -3 -3 -2 -2 -1 -1 -2 -2 -2 -3 -3 -4 -4 -4 -4 -4 -4 -5 -6
5 4 3 1 1 0 0 -0 -1 -1 -2 -2 -2 -3 -4 -4 -4 -4 -4 -3 -3 -3 -2 -2 -2 -2 -2 -3 -3 -4 -4 -4 -4 -4 -4 -5 -5 -6
4 4 3 1 0 0 -0 -0 -1 -2 -2 -3 -4 -4 -4 -4 -4 -4 -4 -4 -4 -3 -3 -3 -3 -3 -3 -3 -3 -4 -5 -5 -5 -4 -5 -6 -5 -5
3 2 1 0 -0 -0 -0 -1 -2 -3 -3 -4 -5 -5 -5 -5 -5 -5 -5 -5 -4 -4 -3 -3 -3 -4 -4 -4 -4 -5 -5 -5 -5 -5 -5 -6 -6 -6
-0 -0 0 -0 -0 -0 -1 -2 -2 -3 -4 -5 -5 -5 -5 -5 -5 -5 -5 -5 -5 -5 -5 -5 -5 -5 -5 -5 -5 -6 -6 -6 -5 -5 -5 -5 -6 -6
1 -1 -1 -1 -1 -1 -2 -3 -3 -4 -5 -5 -6 -5 -5 -6 -6 -6 -6 -6 -6 -6 -6 -6 -6 -6 -6 -6 -6 -6 -7 -7 -7 -6 -5 -6 -6 -6
-0 -1 -1 -1 -2 -3 -4 -4 -5 -6 -6 -6 -6 -6 -6 -6 -7 -7 -7 -7 -7 -7 -7 -7 -7 -7 -7 -7 -7 -8 -8 -7 -7 -7 -8 -9 -8 -8
0 -1 -1 -3 -2 -4 -5 -5 -6 -6 -7 -7 -7 -7 -7 -7 -7 -7 -7 -7 -7 -7 -8 -8 -8 -8 -8 -8 -8 -9 -9 -9 -9 -9 -11 -10 -9 -9
-0 -1 -2 -5 -4 -6 -6 -6 -7 -7 -7 -7 -7 -7 -7 -8 -8 -8 -8 -8 -8 -8 -8 -8 -8 -8 -9 -9 -10 -10 -10 -11 -11 -10 -10 -9 -9 -10
-2 -3 -4 -5 -6 -6 -6 -7 -7 -7 -7 -7 -8 -8 -8 -8 -8 -8 -8 -8 -9 -9 -9 -9 -9 -9 -9 -10 -11 -11 -11 -11 -11 -11 -11 -10 -10 -10
-2 -5 -6 -6 -7 -7 -7 -7 -7 -7 -7 -8 -8 -8 -8 -8 -8 -9 -9 -9 -9 -9 -10 -10 -10 -10 -11 -11 -12 -12 -12 -12 -12 -12 -11 -11 -11 -11
-4 -5 -5 -7 -7 -8 -7 -8 -8 -8 -8 -8 -8 -9 -9 -9 -9 -9 -10 -10 -10 -10 -11 -11 -11 -11 -12 -12 -13 -13 -13 -13 -13 -13 -13 -13 -12 -12
-6 -7 -7 -8 -8 -8 -7 -8 -8 -8 -8 -8 -9 -9 -9 -9 -10 -10 -10 -11 -11 -11 -12 -12 -12 -12 -13 -13 -14 -14 -14 -14 -14 -14 -14 -13 -13 -13
-7 -7 -8 -8 -8 -8 -8 -8 -8 -8 -9 -9 -9 -9 -9 -10 -10 -11 -11 -12 -12 -12 -12 -12 -13 -13 -14 -14 -15 -15 -15 -15 -14 -14 -14 -14 -13 -13

GFSNE_700_temp_240.txt.gz
Temp
8 8 9 8 7 7 7 6 5 5 4 3 3 3 3 3 2 2 2 2 3 3 3 3 3 2 2 2 2 2 2 1 1 1 1 1 1 1
8 8 8 7 7 7 6 6 5 4 3 2 2 3 2 2 3 2 2 2 2 3 2 2 2 2 2 2 2 2 1 1 1 1 1 1 1 1
8 8 8 7 6 6 6 6 4 3 3 2 2 2 2 1 1 1 1 1 2 2 1 1 1 1 1 1 1 1 1 1 1 1 1 0 0 0
8 7 6 7 6 5 5 5 3 3 3 2 2 2 1 1 1 1 1 1 1 1 0 0 1 1 1 1 0 0 1 1 0 0 0 0 -0 -0
8 6 6 5 5 5 6 5 3 3 2 2 1 1 1 1 1 0 1 1 1 0 -1 -0 0 0 0 0 0 0 0 0 -0 -0 -1 -1 -1 -1
7 6 5 5 5 4 5 4 3 3 2 2 1 1 0 0 0 0 1 1 -0 -1 -1 -1 -0 -0 -0 -0 -0 -0 -0 -0 -0 -1 -1 -1 -1 -2
6 5 5 5 4 4 4 3 2 2 2 1 1 0 0 -0 0 0 0 0 -1 -1 -1 -1 -1 -1 -1 -1 -1 -1 -0 -0 -1 -1 -2 -2 -2 -2
5 5 5 5 4 4 4 3 3 2 2 1 1 0 -0 0 -0 0 0 -0 -2 -2 -2 -2 -2 -1 -1 -1 -1 -1 -1 -1 -1 -2 -2 -3 -3 -3
5 5 4 4 4 4 4 3 2 2 1 0 1 0 -0 -0 -0 -1 -2 -2 -2 -2 -2 -2 -2 -1 -1 -1 -1 -1 -1 -1 -2 -2 -3 -3 -3 -3
5 4 3 4 4 3 3 2 1 1 -0 0 -0 -0 -0 -1 -1 -2 -3 -3 -3 -3 -3 -2 -2 -2 -2 -2 -2 -2 -2 -2 -2 -3 -3 -3 -3 -4
4 3 3 3 3 3 2 2 1 -0 -0 -0 -0 -1 -1 -1 -2 -3 -4 -4 -3 -3 -3 -3 -2 -2 -2 -2 -2 -2 -2 -2 -2 -3 -4 -3 -4 -4
4 3 3 3 1 1 1 1 -0 -0 -1 -1 -1 -1 -2 -3 -4 -4 -4 -4 -4 -4 -3 -3 -3 -3 -3 -3 -3 -2 -3 -3 -3 -3 -4 -3 -4 -4
3 3 2 1 1 0 -0 0 -1 -1 -1 -1 -2 -2 -3 -4 -4 -4 -4 -4 -5 -4 -4 -4 -4 -4 -4 -4 -4 -3 -3 -3 -4 -4 -4 -4 -4 -5
2 1 2 1 1 -0 -0 -1 -1 -2 -2 -2 -3 -3 -4 -5 -5 -5 -5 -5 -5 -5 -5 -5 -5 -5 -5 -5 -4 -5 -5 -5 -5 -6 -5 -4 -5 -5
2 1 1 -0 -0 -0 -1 -2 -2 -2 -3 -3 -4 -4 -5 -5 -5 -5 -5 -6 -6 -6 -6 -6 -6 -6 -6 -6 -6 -6 -6 -6 -7 -7 -6 -5 -5 -5
1 -0 -1 -1 -1 -1 -2 -4 -3 -3 -3 -4 -5 -5 -6 -6 -6 -6 -6 -6 -7 -7 -7 -7 -7 -7 -7 -7 -7 -7 -8 -8 -8 -8 -7 -7 -7 -8
0 -0 -0 -0 -1 -3 -5 -5 -5 -3 -6 -6 -6 -6 -6 -6 -6 -7 -7 -7 -7 -7 -8 -8 -8 -8 -8 -8 -8 -8 -9 -9 -10 -10 -11 -11 -10 -10
1 -0 -0 0 -1 -6 -5 -4 -3 -5 -6 -6 -6 -6 -6 -7 -7 -7 -8 -8 -8 -8 -8 -8 -8 -8 -9 -9 -9 -10 -11 -11 -11 -12 -11 -10 -10 -11
0 1 0 -2 -2 -4 -4 -5 -5 -7 -7 -7 -7 -7 -7 -7 -7 -8 -8 -8 -8 -9 -9 -9 -9 -9 -9 -10 -10 -11 -11 -11 -11 -11 -11 -11 -10 -10
0 -1 -3 -3 -5 -5 -5 -5 -6 -7 -7 -7 -7 -7 -7 -8 -8 -8 -9 -9 -9 -9 -9 -10 -10 -10 -10 -11 -11 -12 -12 -12 -12 -12 -12 -12 -11 -11
-2 -2 -4 -3 -4 -6 -6 -6 -7 -7 -7 -7 -7 -8 -8 -8 -9 -9 -9 -10 -10 -10 -10 -11 -11 -11 -11 -12 -12 -13 -13 -13 -13 -13 -13 -12 -12 -12
-3 -4 -4 -5 -5 -6 -7 -7 -7 -7 -8 -8 -8 -8 -8 -9 -9 -9 -10 -10 -10 -11 -11 -11 -12 -12 -12 -13 -13 -14 -14 -14 -14 -14 -13 -13 -13 -13
-5 -6 -6 -6 -7 -7 -7 -7 -8 -8 -8 -8 -8 -8 -9 -9 -10 -10 -10 -10 -11 -12 -12 -12 -12 -13 -13 -14 -14 -15 -15 -15 -15 -14 -14 -14 -13 -13

GFSNE_700_temp_243.txt.gz
Temp
10 10 9 9 8 8 7 6 6 6 6 6 5 5 4 3 2 2 2 2 2 2 3 3 3 3 3 2 2 2 2 2 2 1 1 1 1 0
10 10 9 9 8 8 7 6 5 6 5 5 5 4 2 2 2 2 2 2 2 2 2 2 2 3 2 2 1 1 1 1 1 1 1 1 0 0
10 10 9 8 8 7 6 5 4 4 4 4 4 3 3 2 2 2 2 2 1 2 1 2 2 2 1 1 1 1 1 1 1 1 1 1 0 -0
10 10 9 8 7 7 5 5 4 3 3 4 3 3 2 2 1 1 1 1 1 1 1 1 2 1 1 0 0 0 0 0 0 0 0 0 -0 -1
9 9 8 7 7 6 5 4 4 4 4 3 3 3 2 2 1 1 1 1 1 1 1 1 1 0 -0 -0 -0 -0 -0 -0 0 0 -0 -0 -1 -1
8 8 8 7 6 6 5 4 4 4 4 3 3 2 2 2 1 1 0 1 1 1 1 1 -0 -1 -1 -1 -1 -0 -1 -0 -0 -0 -0 -1 -1 -1
8 7 7 6 6 5 5 4 4 4 4 3 2 1 2 1 1 0 1 1 1 1 -0 -0 -1 -1 -1 -1 -1 -1 -1 -1 -1 -1 -1 -1 -1 -1
7 6 6 5 5 5 5 4 4 3 2 2 2 1 1 1 1 1 1 0 0 0 -1 -2 -2 -2 -1 -2 -2 -1 -1 -1 -1 -1 -1 -1 -1 -2
6 6 6 5 5 5 4 4 3 3 2 3 1 1 1 1 1 0 0 1 0 -1 -1 -2 -2 -2 -2 -2 -2 -2 -1 -1 -1 -1 -2 -2 -2 -2
6 4 5 6 4 4 4 3 3 2 2 1 1 1 1 0 -0 -0 0 0 -1 -2 -2 -2 -2 -3 -3 -2 -2 -2 -2 -2 -2 -2 -2 -2 -2 -2
6 4 4 4 4 4 3 3 2 2 1 1 0 0 -0 -1 -1 -0 -0 -1 -2 -3 -3 -3 -3 -3 -3 -3 -3 -3 -3 -2 -2 -2 -2 -2 -2 -2
4 4 3 3 4 3 3 2 2 1 1 -0 -1 -1 -2 -2 -1 -1 -2 -3 -4 -4 -3 -3 -4 -4 -4 -3 -3 -3 -3 -3 -3 -3 -3 -3 -3 -2
4 3 3 3 3 3 3 1 1 0 -1 -1 -1 -3 -2 -2 -1 -2 -3 -4 -4 -4 -4 -4 -4 -4 -4 -4 -4 -4 -4 -4 -4 -4 -3 -4 -4 -3
3 3 3 3 3 3 2 1 -0 -0 -1 -1 -4 -4 -3 -2 -3 -4 -5 -5 -5 -4 -5 -5 -5 -5 -5 -5 -4 -5 -5 -5 -5 -5 -5 -5 -5 -4
2 3 3 3 3 3 -0 -1 -1 -1 -1 -4 -4 -4 -2 -3 -4 -5 -5 -5 -5 -5 -5 -6 -6 -6 -6 -6 -6 -7 -7 -7 -7 -6 -6 -6 -6 -6
2 3 3 2 0 -0 -1 -1 -2 -2 -3 -5 -4 -2 -2 -4 -5 -5 -5 -6 -6 -6 -6 -7 -7 -7 -7 -7 -7 -8 -8 -8 -8 -8 -8 -8 -8 -8
2 2 0 -1 -1 0 -0 -2 -2 -4 -6 -4 -3 -4 -5 -6 -6 -6 -6 -7 -7 -7 -7 -7 -7 -8 -8 -8 -9 -9 -9 -10 -10 -10 -11 -11 -11 -11
1 1 0 -0 -1 -1 -2 -2 -4 -3 -3 -4 -4 -5 -6 -6 -6 -7 -7 -7 -7 -7 -8 -8 -8 -9 -9 -9 -9 -10 -10 -11 -10 -11 -12 -11 -11 -12
1 0 -2 -2 -1 -2 -2 -3 -3 -4 -5 -5 -5 -6 -6 -7 -7 -7 -8 -8 -8 -8 -8 -8 -9 -9 -9 -10 -10 -11 -11 -11 -11 -12 -12 -12 -11 -11
0 -0 -1 -2 -2 -2 -3 -3 -4 -5 -5 -6 -6 -6 -7 -7 -8 -8 -8 -8 -8 -9 -9 -9 -9 -10 -10 -11 -11 -11 -12 -12 -12 -13 -13 -12 -12 -12
-0 -0 -1 -2 -3 -4 -4 -4 -5 -6 -7 -7 -7 -7 -8 -8 -8 -8 -9 -9 -9 -9 -9 -10 -10 -11 -11 -11 -12 -12 -13 -13 -13 -13 -13 -13 -12 -12
-1 -1 -3 -4 -5 -5 -5 -5 -6 -7 -7 -7 -7 -8 -8 -8 -8 -9 -9 -9 -9 -9 -10 -10 -11 -11 -12 -12 -12 -13 -14 -14 -14 -14 -14 -13 -13 -13
-2 -4 -5 -6 -6 -6 -6 -7 -7 -8 -8 -8 -8 -8 -9 -9 -9 -9 -9 -9 -9 -10 -11 -12 -12 -12 -12 -13 -13 -14 -14 -14 -15 -14 -14 -14 -13 -13

GFSNE_700_temp_246.txt.gz
Temp
9 9 9 9 9 9 8 6 5 5 5 5 5 4 4 4 4 3 1 2 1 2 2 2 3 3 3 3 3 3 2 2 2 1 1 1 1 1
9 9 9 9 9 9 7 6 6 5 5 5 4 4 4 3 3 3 2 2 1 2 2 3 3 3 3 3 3 3 2 1 1 1 1 1 1 1
8 8 9 9 9 9 8 7 6 6 5 4 3 3 5 3 3 2 2 2 2 2 2 3 3 3 3 3 2 2 1 1 1 0 0 0 0 0
7 7 8 9 9 9 7 6 6 6 5 4 3 4 4 3 2 1 2 2 1 2 2 2 2 3 2 2 2 1 1 0 0 0 0 0 0 -0
7 7 7 8 8 8 6 6 6 6 5 3 3 3 4 2 2 1 2 1 1 1 1 1 2 2 2 2 1 0 -0 -0 -0 -0 -0 -0 -0 -0
7 7 7 7 8 7 6 6 5 5 5 4 4 4 4 3 2 2 1 1 0 1 1 1 1 1 1 1 0 -0 -1 -1 -1 -1 -1 -1 -1 -1
7 7 7 7 7 7 6 6 5 5 5 4 4 3 3 3 3 2 1 1 0 0 0 1 1 0 -0 0 -1 -1 -1 -1 -1 -1 -1 -1 -1 -1
6 7 7 7 7 7 6 6 5 5 4 4 3 3 3 2 1 0 1 1 -0 -0 0 0 -0 -1 -1 -1 -1 -1 -2 -2 -2 -2 -1 -1 -1 -1
6 6 6 7 7 6 5 5 5 4 4 4 3 2 3 1 1 0 0 -1 -1 -0 -0 -1 -1 -1 -2 -2 -2 -2 -2 -2 -2 -2 -2 -2 -2 -2
5 5 5 5 5 5 4 4 4 3 3 3 3 2 2 1 0 -0 -0 -1 -1 -0 -1 -1 -2 -2 -3 -2 -3 -3 -3 -3 -3 -3 -3 -2 -2 -2
5 4 4 3 4 4 3 4 3 2 3 2 3 2 2 1 -1 -2 -1 -1 -2 -1 -2 -2 -3 -3 -3 -3 -3 -3 -3 -3 -3 -3 -3 -3 -2 -2
4 4 4 4 3 3 3 3 3 3 2 3 2 2 2 -1 -1 -1 -1 -3 -2 -2 -3 -3 -4 -3 -3 -4 -4 -4 -4 -4 -4 -3 -3 -3 -3 -3
3 4 3 2 2 3 3 3 2 3 1 3 2 2 -0 -2 -1 -2 -3 -2 -3 -3 -3 -4 -4 -4 -4 -5 -5 -5 -4 -4 -4 -4 -4 -4 -4 -4
3 3 2 2 3 2 2 2 2 2 2 1 0 -1 -1 -1 -2 -3 -3 -3 -4 -4 -4 -4 -4 -5 -5 -5 -5 -5 -5 -5 -6 -6 -6 -5 -5 -5
3 3 2 1 1 2 2 2 2 1 1 0 -1 -1 -2 -3 -3 -3 -3 -4 -4 -5 -5 -5 -5 -6 -6 -6 -6 -6 -7 -7 -7 -7 -7 -8 -7 -7
2 2 1 0 1 1 2 1 1 -1 -1 -2 -2 -2 -3 -3 -3 -3 -5 -5 -5 -5 -5 -6 -6 -6 -7 -7 -7 -8 -8 -8 -9 -9 -9 -9 -9 -9
1 2 1 -0 1 1 1 -1 -1 -1 -2 -3 -3 -3 -4 -4 -3 -5 -5 -6 -6 -6 -6 -7 -7 -7 -7 -8 -8 -9 -9 -9 -10 -10 -11 -11 -11 -11
-0 0 0 0 1 0 -1 -1 -1 -1 -3 -3 -4 -4 -5 -5 -5 -6 -6 -6 -7 -7 -7 -7 -8 -8 -8 -9 -9 -10 -10 -10 -11 -11 -12 -12 -11 -12
-1 -2 -1 -0 -1 -1 -2 -2 -3 -3 -3 -4 -5 -5 -5 -6 -6 -6 -7 -7 -7 -7 -8 -8 -8 -9 -9 -10 -10 -10 -10 -11 -12 -12 -12 -12 -12 -11
-2 -2 -1 -1 -1 -3 -2 -3 -4 -4 -4 -5 -6 -6 -7 -7 -7 -7 -7 -7 -8 -8 -8 -9 -9 -9 -10 -10 -10 -10 -11 -12 -12 -12 -12 -12 -12 -12
-2 -3 -2 -1 -2 -2 -4 -4 -4 -5 -6 -6 -7 -7 -8 -7 -7 -7 -8 -8 -8 -9 -9 -9 -10 -10 -10 -11 -11 -11 -12 -13 -13 -13 -13 -13 -12 -12
-2 -2 -2 -2 -3 -3 -4 -5 -6 -6 -6 -7 -8 -8 -7 -7 -8 -8 -8 -9 -9 -9 -9 -10 -10 -11 -11 -11 -11 -12 -13 -14 -14 -14 -14 -13 -13 -13
-5 -3 -4 -4 -5 -5 -5 -6 -7 -7 -7 -9 -9 -8 -8 -8 -8 -8 -9 -9 -9 -10 -10 -10 -11 -11 -11 -11 -12 -13 -14 -14 -14 -14 -14 -14 -13 -13